Location: Berlin
(38.3226°N, 75.2177°W)
Time: 23:14:47
(UTC+00:00)

Cosmos 1980 Rocket - Pass Details

Date: 26 October 2020
Orbit: 831 x 848 km, 71.0° (Epoch: 25 November)

Event Time Altitude Azimuth Distance (km) Brightness Sun altitude
Rises 01:18:38 0° 221° (SW) 3,380 5.6 -37.7°
Reaches altitude 10° 01:21:13 10° 228° (SW) 2,447 4.9 -38.1°
Enters shadow 01:22:31 17° 235° (SW) 2,007 4.4 -38.4°
